Simultaneous Nadir Overpasses (SNOs) Predictions

Prediction of SNOs between TERRA and METOP-C Satellite Orbit:

Table of predicted SNOs for the next 14.0 days since TLE Epoch: 2/17/2024
Index Date (TERRA) Time (TERRA) Lat,Lon (TERRA) SZA (TERRA ) Date (METOP-C) Time (METOP-C) Lat,Lon (METOP-C) SZA (METOP-C ) Distance(km) Time Diff (sec)
1 02/17/2024 14:52:58 -79.62, 155.57 88.06 02/17/2024 14:52:14 -79.62, 155.49 88.08 1.73 44
2 02/17/2024 15:42:12 79.86, -35.05 92.24 02/17/2024 15:42:46 79.87, -34.91 92.27 2.80 34
3 02/20/2024 06:13:28 79.70, 105.95 91.11 02/20/2024 06:13:09 79.70, 106.00 91.12 0.93 19
4 02/20/2024 07:02:46 -79.88, -85.11 88.67 02/20/2024 07:03:45 -79.88, -85.02 88.65 1.76 59
5 02/22/2024 20:44:44 79.55,-112.94 89.98 02/22/2024 20:43:32 79.56,-112.83 89.98 2.36 72
6 02/22/2024 21:34:03 -79.69, 55.72 89.85 02/22/2024 21:34:10 -79.69, 55.59 89.86 2.79 7
7 02/25/2024 12:05:17 -79.59,-162.82 90.94 02/25/2024 12:04:31 -79.60,-162.70 90.93 2.48 46
8 02/25/2024 12:54:33 79.75, 5.95 89.26 02/25/2024 12:55:06 79.75, 5.90 89.26 0.96 33
9 02/28/2024 03:25:47 79.62, 147.20 88.12 02/28/2024 03:25:28 79.62, 147.22 88.12 0.61 19
10 02/28/2024 04:15:04 -79.84, -43.57 91.61 02/28/2024 04:16:03 -79.85, -43.42 91.58 3.10 59
11 03/01/2024 17:57:01 79.46, -71.71 86.93 03/01/2024 17:55:51 79.45, -71.76 86.91 1.14 70



Historial Predications of SNOs between TERRA and METOP-C
